KLC334 LIPZ-LGSK

Flight info

Callsign KLC334
Flight time 1h 33m
Altitude 39000
Route ROSKA T132 ROTAR DCT PUL DCT OKLAX DCT NETKO DCT RETRA DCT RINAV DCT MAVAR DCT TALAS DCT IBIDI
Aircraft E190/M-SDE3GILORVW/S

Departure

Time 2026-04-29 13:53
Airport Venice Marco Polo Airport (LIPZ)

Arrival

Time 2026-04-29 15:27
Airport Skiathos Island National Airport (LGSK)
Time Latitude Longitude Altitude Speed Heading
2026-04-29 13:41 45.50182 12.34065 14 ft 0 kts 311°
2026-04-29 13:46 45.50179 12.34070 14 ft 2 kts 311°
2026-04-29 13:46 45.50168 12.34088 16 ft 2 kts 311°
2026-04-29 13:46 45.50158 12.34105 15 ft 2 kts 311°
2026-04-29 13:47 45.50147 12.34122 15 ft 2 kts 307°
2026-04-29 13:47 45.50140 12.34143 15 ft 2 kts 261°
2026-04-29 13:47 45.50144 12.34156 15 ft 0 kts 223°
2026-04-29 13:48 45.50142 12.34153 16 ft 1 kts 223°
2026-04-29 13:49 45.50128 12.34136 16 ft 4 kts 221°
2026-04-29 13:49 45.50102 12.34106 14 ft 6 kts 219°
2026-04-29 13:49 45.50065 12.34060 14 ft 8 kts 222°
2026-04-29 13:49 45.50016 12.33997 14 ft 10 kts 222°
2026-04-29 13:50 45.49957 12.33921 14 ft 12 kts 222°
2026-04-29 13:50 45.49888 12.33833 14 ft 14 kts 222°
2026-04-29 13:50 45.49811 12.33734 16 ft 16 kts 222°
2026-04-29 13:50 45.49719 12.33642 15 ft 17 kts 208°
2026-04-29 13:51 45.49638 12.33571 15 ft 13 kts 219°
2026-04-29 13:51 45.49554 12.33521 15 ft 14 kts 172°
2026-04-29 13:51 45.49493 12.33598 16 ft 12 kts 121°
2026-04-29 13:51 45.49442 12.33690 15 ft 12 kts 133°
2026-04-29 13:52 45.49428 12.33802 15 ft 12 kts 57°
2026-04-29 13:52 45.49458 12.33838 14 ft 0 kts 43°
2026-04-29 13:52 45.49467 12.33851 15 ft 14 kts 42°
2026-04-29 13:52 45.49717 12.34169 12 ft 81 kts 42°
2026-04-29 13:53 45.50276 12.34898 25 ft 133 kts 45°
2026-04-29 13:53 45.51064 12.35842 314 ft 165 kts 44°
2026-04-29 13:53 45.52045 12.37125 463 ft 210 kts 45°
2026-04-29 13:53 45.53064 12.38570 912 ft 193 kts 44°
2026-04-29 13:54 45.54212 12.39712 840 ft 208 kts 40°
2026-04-29 13:54 45.55087 12.41349 1812 ft 218 kts 70°
2026-04-29 13:54 45.55124 12.43518 2873 ft 227 kts 107°
2026-04-29 13:54 45.54338 12.45500 3909 ft 232 kts 116°
2026-04-29 13:55 45.53721 12.47588 5021 ft 225 kts 107°
2026-04-29 13:55 45.53254 12.49741 5960 ft 228 kts 105°
2026-04-29 13:55 45.52846 12.51935 6823 ft 229 kts 104°
2026-04-29 13:55 45.52446 12.54156 7574 ft 234 kts 109°
2026-04-29 13:56 45.51609 12.56254 7935 ft 253 kts 134°
2026-04-29 13:56 45.50328 12.58087 8480 ft 265 kts 137°
2026-04-29 13:56 45.49443 12.59325 8859 ft 274 kts 137°
2026-04-29 13:56 45.48061 12.61311 9381 ft 288 kts 138°
2026-04-29 13:57 45.46638 12.63374 10093 ft 295 kts 136°
2026-04-29 13:57 45.45169 12.65509 10612 ft 310 kts 137°
2026-04-29 13:57 45.43610 12.67763 11052 ft 327 kts 137°
2026-04-29 13:57 45.41980 12.70126 11734 ft 334 kts 135°
2026-04-29 13:58 45.40379 12.72555 12477 ft 342 kts 134°
2026-04-29 13:58 45.38731 12.75074 13185 ft 352 kts 134°
2026-04-29 13:58 45.37058 12.77613 14123 ft 354 kts 134°
2026-04-29 13:58 45.35362 12.80190 14924 ft 360 kts 134°
2026-04-29 13:59 45.33640 12.82799 15796 ft 363 kts 134°
2026-04-29 13:59 45.31912 12.85430 16682 ft 367 kts 133°
2026-04-29 13:59 45.30452 12.88448 17404 ft 374 kts 120°
2026-04-29 13:59 45.29220 12.91729 18235 ft 378 kts 118°
2026-04-29 14:00 45.27983 12.94998 18914 ft 383 kts 119°
2026-04-29 14:00 45.26715 12.98341 19619 ft 388 kts 119°
2026-04-29 14:00 45.25411 13.01745 20167 ft 398 kts 120°
2026-04-29 14:00 45.24049 13.05183 20733 ft 405 kts 120°
2026-04-29 14:01 45.22651 13.08716 21103 ft 417 kts 120°
2026-04-29 14:01 45.21212 13.12343 21539 ft 425 kts 120°
2026-04-29 14:01 45.19760 13.16004 22140 ft 428 kts 120°
2026-04-29 14:01 45.18290 13.19700 22696 ft 433 kts 120°
2026-04-29 14:02 45.16817 13.23406 23087 ft 441 kts 120°
2026-04-29 14:02 45.15282 13.27255 23596 ft 446 kts 120°
2026-04-29 14:02 45.13748 13.31100 24060 ft 450 kts 120°
2026-04-29 14:02 45.12225 13.34913 24535 ft 453 kts 120°
2026-04-29 14:03 45.10661 13.38820 25032 ft 456 kts 120°
2026-04-29 14:03 45.09090 13.42741 25514 ft 459 kts 120°
2026-04-29 14:03 45.07503 13.46696 25984 ft 462 kts 120°
2026-04-29 14:03 45.05909 13.50663 26430 ft 465 kts 120°
2026-04-29 14:04 45.04302 13.54657 26842 ft 469 kts 120°
2026-04-29 14:04 45.02682 13.58674 27268 ft 472 kts 120°
2026-04-29 14:04 45.01052 13.62715 27674 ft 474 kts 121°
2026-04-29 14:04 44.99410 13.66778 28069 ft 477 kts 121°
2026-04-29 14:05 44.97758 13.70860 28440 ft 480 kts 121°
2026-04-29 14:05 44.96117 13.74911 28793 ft 482 kts 121°
2026-04-29 14:05 44.94445 13.79033 29146 ft 485 kts 121°
2026-04-29 14:05 44.92767 13.83162 29628 ft 483 kts 121°
2026-04-29 14:06 44.91093 13.87272 30142 ft 483 kts 121°
2026-04-29 14:06 44.89422 13.91376 30581 ft 481 kts 121°
2026-04-29 14:06 44.87676 13.95404 30974 ft 480 kts 124°
2026-04-29 14:06 44.85819 13.99313 31343 ft 480 kts 125°
2026-04-29 14:07 44.83969 14.03235 31700 ft 480 kts 124°
2026-04-29 14:07 44.82126 14.07155 32040 ft 479 kts 124°
2026-04-29 14:07 44.80289 14.11069 32376 ft 479 kts 124°
2026-04-29 14:07 44.78476 14.14936 32689 ft 479 kts 124°
2026-04-29 14:08 44.76644 14.18842 33004 ft 479 kts 125°
2026-04-29 14:08 44.74807 14.22757 33311 ft 478 kts 125°
2026-04-29 14:08 44.72976 14.26656 33626 ft 478 kts 125°
2026-04-29 14:08 44.71144 14.30552 33926 ft 477 kts 125°
2026-04-29 14:09 44.69313 14.34442 34203 ft 477 kts 125°
2026-04-29 14:09 44.67480 14.38335 34452 ft 477 kts 125°
2026-04-29 14:09 44.65642 14.42230 34712 ft 476 kts 125°
2026-04-29 14:09 44.63813 14.46104 34997 ft 476 kts 125°
2026-04-29 14:10 44.61980 14.49980 35236 ft 477 kts 126°
2026-04-29 14:10 44.60143 14.53857 35458 ft 477 kts 126°
2026-04-29 14:10 44.58303 14.57738 35699 ft 478 kts 126°
2026-04-29 14:10 44.56456 14.61629 35945 ft 478 kts 126°
2026-04-29 14:11 44.54634 14.65462 36186 ft 478 kts 126°
2026-04-29 14:11 44.52785 14.69345 36409 ft 478 kts 126°
2026-04-29 14:11 44.50932 14.73236 36643 ft 479 kts 126°
2026-04-29 14:11 44.49074 14.77127 36852 ft 479 kts 126°
2026-04-29 14:12 44.47221 14.81003 37075 ft 479 kts 126°
2026-04-29 14:12 44.45367 14.84879 37288 ft 480 kts 126°
2026-04-29 14:12 44.43501 14.88767 37506 ft 480 kts 126°
2026-04-29 14:12 44.41666 14.92592 37707 ft 480 kts 126°
2026-04-29 14:13 44.39802 14.96466 37902 ft 481 kts 126°
2026-04-29 14:13 44.37937 15.00339 38129 ft 479 kts 126°
2026-04-29 14:13 44.36074 15.04203 38325 ft 479 kts 126°
2026-04-29 14:13 44.34207 15.08068 38509 ft 479 kts 126°
2026-04-29 14:14 44.32340 15.11940 38643 ft 481 kts 126°
2026-04-29 14:14 44.30463 15.15822 38762 ft 482 kts 126°
2026-04-29 14:14 44.28591 15.19692 39057 ft 476 kts 126°
2026-04-29 14:14 44.26740 15.23513 39213 ft 477 kts 126°
2026-04-29 14:15 44.22991 15.31226 39207 ft 482 kts 126°
2026-04-29 14:15 44.19211 15.38992 39038 ft 485 kts 126°
2026-04-29 14:16 44.15428 15.46759 39046 ft 484 kts 126°
2026-04-29 14:16 44.11663 15.54449 39050 ft 483 kts 126°
2026-04-29 14:17 44.07876 15.62158 39050 ft 482 kts 126°
2026-04-29 14:17 44.04094 15.69850 39052 ft 481 kts 126°
2026-04-29 14:18 44.00316 15.77531 39046 ft 481 kts 126°
2026-04-29 14:18 43.96527 15.85200 39041 ft 480 kts 126°
2026-04-29 14:19 43.92747 15.92842 39043 ft 480 kts 126°
2026-04-29 14:19 43.88960 16.00465 39047 ft 479 kts 126°
2026-04-29 14:20 43.85158 16.08064 39040 ft 479 kts 127°
2026-04-29 14:20 43.81335 16.15623 39041 ft 478 kts 127°
2026-04-29 14:21 43.77557 16.23135 39045 ft 478 kts 127°
2026-04-29 14:21 43.73761 16.30689 39041 ft 478 kts 127°
2026-04-29 14:22 43.69958 16.38250 39038 ft 478 kts 127°
2026-04-29 14:22 43.66157 16.45792 39039 ft 478 kts 127°
2026-04-29 14:23 43.62357 16.53313 39040 ft 478 kts 127°
2026-04-29 14:23 43.58551 16.60826 39043 ft 477 kts 127°
2026-04-29 14:24 43.54739 16.68335 39056 ft 477 kts 127°
2026-04-29 14:24 43.50948 16.75784 39062 ft 477 kts 127°
2026-04-29 14:25 43.47131 16.83265 39062 ft 477 kts 127°
2026-04-29 14:25 43.43292 16.90769 39093 ft 479 kts 127°
2026-04-29 14:26 43.39430 16.98299 39049 ft 484 kts 127°
2026-04-29 14:26 43.35542 17.05857 39050 ft 484 kts 127°
2026-04-29 14:27 43.31649 17.13413 39023 ft 485 kts 127°
2026-04-29 14:28 43.25846 17.24645 39033 ft 483 kts 127°
2026-04-29 14:28 43.21951 17.32164 39039 ft 482 kts 127°
2026-04-29 14:29 43.18059 17.39649 39035 ft 481 kts 127°
2026-04-29 14:29 43.14170 17.47122 39031 ft 482 kts 127°
2026-04-29 14:30 43.10280 17.54578 39034 ft 481 kts 127°
2026-04-29 14:30 43.06402 17.61979 39036 ft 481 kts 127°
2026-04-29 14:31 43.02548 17.69469 39068 ft 479 kts 124°
2026-04-29 14:31 42.98925 17.77164 39034 ft 481 kts 124°
2026-04-29 14:32 42.95314 17.84780 39035 ft 481 kts 124°
2026-04-29 14:32 42.91664 17.92445 39043 ft 480 kts 124°
2026-04-29 14:33 42.88015 18.00079 39043 ft 480 kts 124°
2026-04-29 14:33 42.84364 18.07698 39046 ft 480 kts 124°
2026-04-29 14:34 42.80711 18.15298 39053 ft 480 kts 125°
2026-04-29 14:34 42.77050 18.22899 39070 ft 480 kts 125°
2026-04-29 14:35 42.73383 18.30489 39073 ft 478 kts 125°
2026-04-29 14:35 42.69726 18.38046 39078 ft 478 kts 125°
2026-04-29 14:36 42.66087 18.45540 39063 ft 478 kts 125°
2026-04-29 14:36 42.62422 18.53070 39073 ft 478 kts 125°
2026-04-29 14:37 42.58748 18.60598 39070 ft 478 kts 125°
2026-04-29 14:37 42.55059 18.68138 39059 ft 481 kts 125°
2026-04-29 14:38 42.51339 18.75729 39052 ft 483 kts 125°
2026-04-29 14:38 42.47615 18.83318 39061 ft 484 kts 125°
2026-04-29 14:39 42.43874 18.90902 39019 ft 483 kts 125°
2026-04-29 14:39 42.40149 18.98449 39036 ft 481 kts 125°
2026-04-29 14:40 42.36430 19.05971 39025 ft 481 kts 125°
2026-04-29 14:40 42.32732 19.13430 39028 ft 481 kts 125°
2026-04-29 14:41 42.29005 19.20941 39021 ft 480 kts 125°
2026-04-29 14:41 42.25274 19.28434 39024 ft 480 kts 125°
2026-04-29 14:42 42.21512 19.35894 39029 ft 479 kts 128°
2026-04-29 14:42 42.18249 19.41930 39045 ft 479 kts 128°
2026-04-29 14:43 42.14336 19.49207 39028 ft 479 kts 127°
2026-04-29 14:43 42.09796 19.57665 39048 ft 479 kts 127°
2026-04-29 14:44 42.06528 19.63754 39047 ft 479 kts 127°
2026-04-29 14:44 42.02647 19.70969 39055 ft 478 kts 127°
2026-04-29 14:45 41.98751 19.78210 39055 ft 478 kts 125°
2026-04-29 14:45 41.95390 19.85931 39064 ft 478 kts 120°
2026-04-29 14:46 41.92131 19.93729 39069 ft 479 kts 120°
2026-04-29 14:46 41.88855 20.01527 39064 ft 478 kts 120°
2026-04-29 14:47 41.85576 20.09297 39071 ft 478 kts 120°
2026-04-29 14:47 41.82306 20.17017 39038 ft 479 kts 121°
2026-04-29 14:48 41.79013 20.24770 39071 ft 478 kts 120°
2026-04-29 14:48 41.75722 20.32493 39051 ft 477 kts 121°
2026-04-29 14:49 41.72421 20.40227 39069 ft 480 kts 121°
2026-04-29 14:49 41.69093 20.48006 39055 ft 482 kts 121°
2026-04-29 14:50 41.65765 20.55786 39044 ft 481 kts 120°
2026-04-29 14:50 41.62526 20.63547 39040 ft 480 kts 120°
2026-04-29 14:51 41.59264 20.71324 39041 ft 479 kts 120°
2026-04-29 14:51 41.55996 20.79091 39030 ft 479 kts 120°
2026-04-29 14:52 41.52725 20.86839 39037 ft 477 kts 120°
2026-04-29 14:52 41.49457 20.94566 39012 ft 478 kts 120°
2026-04-29 14:53 41.46207 21.02226 39004 ft 477 kts 120°
2026-04-29 14:53 41.44560 21.06101 38641 ft 483 kts 120°
2026-04-29 14:53 41.42916 21.09967 38707 ft 474 kts 120°
2026-04-29 14:53 41.41307 21.13745 39186 ft 465 kts 121°
2026-04-29 14:54 41.39692 21.17527 39039 ft 472 kts 120°
2026-04-29 14:54 41.36428 21.25159 39049 ft 477 kts 120°
2026-04-29 14:55 41.33129 21.32857 39035 ft 479 kts 120°
2026-04-29 14:55 41.29838 21.40520 39029 ft 480 kts 121°
2026-04-29 14:56 41.26519 21.48222 39007 ft 480 kts 121°
2026-04-29 14:56 41.23196 21.55914 39012 ft 479 kts 121°
2026-04-29 14:57 41.19866 21.63607 39006 ft 480 kts 121°
2026-04-29 14:57 41.16541 21.71282 39011 ft 479 kts 121°
2026-04-29 14:58 41.13215 21.78927 39018 ft 478 kts 121°
2026-04-29 14:58 41.09892 21.86562 38999 ft 478 kts 121°
2026-04-29 14:59 41.05937 21.93398 39066 ft 468 kts 144°
2026-04-29 14:59 41.00707 21.98490 39034 ft 466 kts 147°
2026-04-29 15:00 40.95476 22.03588 39031 ft 467 kts 146°
2026-04-29 15:00 40.90253 22.08697 39048 ft 467 kts 146°
2026-04-29 15:01 40.85021 22.13819 39052 ft 468 kts 146°
2026-04-29 15:01 40.79799 22.18926 39043 ft 466 kts 146°
2026-04-29 15:02 40.74615 22.23989 39047 ft 467 kts 146°
2026-04-29 15:02 40.69390 22.29084 39048 ft 467 kts 146°
2026-04-29 15:03 40.64195 22.34143 39059 ft 459 kts 146°
2026-04-29 15:03 40.59062 22.39127 39066 ft 458 kts 147°
2026-04-29 15:04 40.53891 22.44135 38221 ft 472 kts 147°
2026-04-29 15:04 40.51225 22.46680 36763 ft 485 kts 146°
2026-04-29 15:04 40.48460 22.49324 35368 ft 495 kts 146°
2026-04-29 15:04 40.45651 22.52010 34266 ft 499 kts 146°
2026-04-29 15:05 40.42888 22.54669 33658 ft 488 kts 146°
2026-04-29 15:05 40.40169 22.57283 33053 ft 478 kts 146°
2026-04-29 15:05 40.37508 22.59840 32377 ft 470 kts 146°
2026-04-29 15:05 40.34898 22.62344 31794 ft 460 kts 146°
2026-04-29 15:06 40.32326 22.64810 31180 ft 454 kts 146°
2026-04-29 15:06 40.29784 22.67244 30585 ft 454 kts 146°
2026-04-29 15:06 40.27224 22.69692 29965 ft 457 kts 146°
2026-04-29 15:06 40.24642 22.72159 29379 ft 461 kts 146°
2026-04-29 15:07 40.22073 22.74614 28742 ft 465 kts 146°
2026-04-29 15:07 40.19465 22.77103 28139 ft 463 kts 146°
2026-04-29 15:07 40.16867 22.79582 27519 ft 459 kts 146°
2026-04-29 15:07 40.14298 22.82030 26916 ft 455 kts 146°
2026-04-29 15:08 40.11748 22.84456 26312 ft 451 kts 146°
2026-04-29 15:08 40.09220 22.86864 25710 ft 448 kts 146°
2026-04-29 15:08 40.06716 22.89243 25165 ft 443 kts 146°
2026-04-29 15:08 40.04260 22.91580 25119 ft 436 kts 146°
2026-04-29 15:09 40.01803 22.93919 25064 ft 439 kts 146°
2026-04-29 15:09 39.99318 22.96279 24612 ft 446 kts 146°
2026-04-29 15:09 39.96793 22.98668 23614 ft 448 kts 146°
2026-04-29 15:09 39.94303 23.01029 22436 ft 448 kts 146°
2026-04-29 15:10 39.91791 23.03412 21603 ft 441 kts 146°
2026-04-29 15:10 39.89356 23.05712 21012 ft 427 kts 146°
2026-04-29 15:10 39.86980 23.07953 20450 ft 416 kts 146°
2026-04-29 15:10 39.84666 23.10136 19897 ft 406 kts 146°
2026-04-29 15:11 39.82399 23.12275 19369 ft 399 kts 146°
2026-04-29 15:11 39.80160 23.14385 18848 ft 396 kts 146°
2026-04-29 15:11 39.77924 23.16492 18305 ft 395 kts 146°
2026-04-29 15:11 39.75705 23.18577 17784 ft 392 kts 146°
2026-04-29 15:12 39.73501 23.20649 17265 ft 390 kts 146°
2026-04-29 15:12 39.72044 23.22019 16918 ft 388 kts 146°
2026-04-29 15:12 39.69160 23.24730 16242 ft 384 kts 146°
2026-04-29 15:12 39.67001 23.26756 15735 ft 381 kts 146°
2026-04-29 15:13 39.64859 23.28770 15228 ft 379 kts 146°
2026-04-29 15:13 39.62734 23.30761 14727 ft 373 kts 146°
2026-04-29 15:13 39.60654 23.32717 14229 ft 364 kts 146°
2026-04-29 15:13 39.58625 23.34612 13703 ft 350 kts 146°
2026-04-29 15:14 39.56710 23.36392 13237 ft 329 kts 146°
2026-04-29 15:14 39.54867 23.38111 12866 ft 324 kts 146°
2026-04-29 15:14 39.53053 23.39809 12436 ft 320 kts 146°
2026-04-29 15:14 39.51256 23.41482 12012 ft 316 kts 146°
2026-04-29 15:15 39.49508 23.43112 11605 ft 312 kts 146°
2026-04-29 15:15 39.47752 23.44745 11189 ft 308 kts 146°
2026-04-29 15:15 39.46022 23.46358 10779 ft 305 kts 146°
2026-04-29 15:15 39.44304 23.47958 10378 ft 302 kts 146°
2026-04-29 15:16 39.42609 23.49535 9978 ft 299 kts 147°
2026-04-29 15:16 39.40809 23.50820 9560 ft 293 kts 160°
2026-04-29 15:16 39.38911 23.51715 9187 ft 289 kts 163°
2026-04-29 15:16 39.37016 23.52593 8796 ft 288 kts 162°
2026-04-29 15:17 39.35132 23.53475 8420 ft 287 kts 162°
2026-04-29 15:17 39.33282 23.54349 8042 ft 286 kts 162°
2026-04-29 15:17 39.31414 23.55233 7661 ft 286 kts 162°
2026-04-29 15:17 39.29554 23.56114 7289 ft 284 kts 162°
2026-04-29 15:18 39.27698 23.56997 6844 ft 284 kts 162°
2026-04-29 15:18 39.25853 23.57874 6480 ft 281 kts 162°
2026-04-29 15:18 39.24030 23.58743 6098 ft 278 kts 162°
2026-04-29 15:18 39.22223 23.59602 5743 ft 275 kts 161°
2026-04-29 15:19 39.20430 23.60458 5377 ft 273 kts 161°
2026-04-29 15:19 39.18628 23.61132 4987 ft 268 kts 178°
2026-04-29 15:19 39.16833 23.60731 4737 ft 261 kts 202°
2026-04-29 15:19 39.15182 23.59737 4334 ft 262 kts 207°
2026-04-29 15:20 39.13544 23.58740 4003 ft 255 kts 205°
2026-04-29 15:20 39.12032 23.57781 3707 ft 236 kts 208°
2026-04-29 15:20 39.10625 23.56810 3393 ft 223 kts 208°
2026-04-29 15:20 39.09282 23.55901 3115 ft 212 kts 207°
2026-04-29 15:21 39.07999 23.55044 2863 ft 203 kts 206°
2026-04-29 15:21 39.06769 23.54228 2631 ft 194 kts 206°
2026-04-29 15:21 39.05587 23.53448 2431 ft 186 kts 206°
2026-04-29 15:21 39.04473 23.52717 2309 ft 172 kts 205°
2026-04-29 15:22 39.03460 23.52049 2164 ft 156 kts 204°
2026-04-29 15:22 39.02636 23.51202 2002 ft 153 kts 234°
2026-04-29 15:22 39.02415 23.49910 1863 ft 154 kts 280°
2026-04-29 15:22 39.02958 23.48773 1768 ft 150 kts 325°
2026-04-29 15:23 39.03909 23.48375 1781 ft 141 kts 357°
2026-04-29 15:23 39.04874 23.48314 1803 ft 140 kts
2026-04-29 15:23 39.05836 23.48274 1692 ft 138 kts
2026-04-29 15:23 39.06785 23.48219 1642 ft 136 kts 360°
2026-04-29 15:24 39.07735 23.48154 1545 ft 138 kts 360°
2026-04-29 15:24 39.08688 23.48082 1405 ft 136 kts 359°
2026-04-29 15:24 39.09599 23.48171 1389 ft 132 kts 16°
2026-04-29 15:24 39.10489 23.48450 1323 ft 134 kts 16°
2026-04-29 15:25 39.11399 23.48684 1166 ft 134 kts 14°
2026-04-29 15:25 39.12320 23.48908 945 ft 135 kts 14°
2026-04-29 15:25 39.13245 23.49065 717 ft 135 kts
2026-04-29 15:25 39.14158 23.49163 489 ft 130 kts
2026-04-29 15:26 39.15045 23.49260 325 ft 127 kts
2026-04-29 15:26 39.15899 23.49546 171 ft 126 kts 19°
2026-04-29 15:26 39.16727 23.49917 56 ft 126 kts 19°
2026-04-29 15:26 39.17500 23.50261 33 ft 98 kts 19°
2026-04-29 15:27 39.17945 23.50459 40 ft 44 kts 18°
2026-04-29 15:27 39.18217 23.50576 52 ft 38 kts 18°
2026-04-29 15:27 39.18407 23.50656 60 ft 19 kts 17°
2026-04-29 15:27 39.18496 23.50673 62 ft 7 kts 358°
2026-04-29 15:28 39.18510 23.50697 58 ft 2 kts 112°
2026-04-29 15:28 39.18500 23.50704 61 ft 2 kts 159°
2026-04-29 15:28 39.18475 23.50693 58 ft 6 kts 198°
2026-04-29 15:28 39.18413 23.50667 56 ft 13 kts 198°
2026-04-29 15:29 39.18312 23.50625 52 ft 18 kts 198°
2026-04-29 15:29 39.18041 23.50506 44 ft 18 kts 198°
2026-04-29 15:30 39.17927 23.50385 40 ft 13 kts 246°
2026-04-29 15:30 39.17874 23.50310 41 ft 12 kts 201°
2026-04-29 15:30 39.17787 23.50272 40 ft 12 kts 197°
2026-04-29 15:30 39.17696 23.50253 37 ft 13 kts 186°
2026-04-29 15:31 39.17639 23.50226 35 ft 4 kts 236°
2026-04-29 15:31 39.17642 23.50210 34 ft 4 kts 285°
2026-04-29 15:31 39.17648 23.50187 34 ft 0 kts 288°
2026-04-29 15:32 39.17653 23.50169 34 ft 5 kts 288°
2026-04-29 15:32 39.17654 23.50162 33 ft 0 kts 288°